Regional Weather Roundup
Issued by NWS

Home | Current Version | Previous Version | Graphics & Text | Print | Product List | Glossary On
Versions: 1 2 3 4 5 6 7 8 9 10 11 12 13 14 15 16 17 18 19 20 21 22 23 24 25 26 27 28 29 30 31 32 33 34 35 36 37 38 39 40 41 42 43 44 45 46 47 48 49 50
000
ASUS43 KBIS 211002
RWRND

NORTH DAKOTA REGIONAL WEATHER ROUNDUP
NATIONAL WEATHER SERVICE BISMARCK ND
500 AM CDT THU SEP 21 2017

NOTE: "FAIR" INDICATES FEW OR NO CLOUDS BELOW 12,000 FEET WITH NO
SIGNIFICANT WEATHER AND/OR OBSTRUCTIONS TO VISIBILITY.


NDZ001>003-009>011-017-211100-
NORTHWEST NORTH DAKOTA

CITY           SKY/WX    TMP DP  RH WIND       PRES   REMARKS
WILLISTON      CLOUDY    46  41  82 SW3       29.66R
MINOT          CLOUDY    58  38  47 S5        29.64F
MINOT AFB      MOCLDY    53  40  61 S8        29.63S
$$

NDZ018>021-031>035-040>046-211100-
SOUTHWEST NORTH DAKOTA

CITY           SKY/WX    TMP DP  RH WIND       PRES   REMARKS
BISMARCK       CLOUDY    56  41  57 SE7       29.70F
DICKINSON      CLOUDY    54  37  52 S7        29.63F
GARRISON         N/A     55  42  61 S8        29.67S
HETTINGER ARPT CLOUDY    60  38  43 SE9       29.68R
$$

NDZ004>008-012>016-024-026-027-054-211100-
NORTHEAST NORTH DAKOTA

CITY           SKY/WX    TMP DP  RH WIND       PRES   REMARKS
GRAND FORKS    CLEAR     53  46  77 S14       29.81S
GRND FRKS AFB  CLEAR     51  44  77 S12       29.80S
DEVILS LAKE    CLEAR     57  41  55 S15       29.74S
$$

NDZ022-023-025-028>030-036>039-047>053-211100-
SOUTHEAST NORTH DAKOTA

CITY           SKY/WX    TMP DP  RH WIND       PRES   REMARKS
FARGO          PTCLDY    57  47  69 SE14G20   29.84F
JAMESTOWN      CLEAR     48  44  86 SE8       29.77F
$$





USA.gov is the U.S. government's official web portal to all federal, state and local government web resources and services.